Change the Weather History Date:

Saturday, October 6, 2012

  Actual Average Record
Temperature  
Mean Temperature 56 °F 51 °F  
Max Temperature 65 °F 61 °F 85 °F (1990)
Min Temperature 46 °F 41 °F 24 °F (1965)
Degree Days  
Heating Degree Days 9 14  
Month to date heating degree days 42 79  
Since 1 July heating degree days 266 314  
Cooling Degree Days 0 0  
Month to date cooling degree days 0 0  
Year to date cooling degree days 493 345  
Growing Degree Days 7 (Base 50)    
Moisture  
Dew Point 47 °F    
Average Humidity 78    
Maximum Humidity 100    
Minimum Humidity 56    
Precipitation  
Precipitation 0.48 in - 0.75 in (1979)
Month to date precipitation 0.82  
Year to date precipitation 21.34  
Sea Level Pressure  
Sea Level Pressure 29.77 in    
Wind  
Wind Speed 6 mph (North)    
Max Wind Speed 17 mph    
Max Gust Speed 26 mph    
Visibility 9 miles    
Events Rain    
T = Trace of Precipitation, MM = Missing Value Source: NWS Daily Summary

Daily Weather History Graph

Daily Weather History Graph

Search for Another Location

Airport or City:

Trip Planner

Search our weather history database for the weather conditions in past years. The results will help you decide how hot, cold, wet, or windy it might be!

Date:

Astronomy

Oct. 06, 2012 Rise Set
Actual Time 6:58 AM EDT 6:24 PM EDT
Civil Twilight 6:29 AM EDT 6:53 PM EDT
Nautical Twilight 5:55 AM EDT 7:27 PM EDT
Astronomical Twilight 5:21 AM EDT 8:01 PM EDT
Moon 10:26 PM EDT (10/6) 1:02 PM EDT (10/6)
Length of Visible Light 12h 24m
Length of Day
11h 25m
Waning Gibbous, 65% of the Moon is Illuminated
Oct 6
Waning Gibbous
Oct 8
Last Quarter
Oct 15
New
Oct 21
First Quarter
Oct 29
Full

Hourly Weather History & Observations

Time (EDT) Temp. Dew Point Humidity Pressure Visibility Wind Dir Wind Speed Gust Speed Precip Events Conditions
12:53 AM 66.0 °F 53.1 °F 63% 29.83 in 10.0 mi West 5.8 mph - N/A   Overcast
1:53 AM 63.0 °F 53.1 °F 70% 29.81 in 10.0 mi WNW 4.6 mph - 0.00 in   Overcast
2:53 AM 63.0 °F 53.1 °F 70% 29.78 in 10.0 mi NW 3.5 mph - N/A   Overcast
3:53 AM 60.1 °F 53.1 °F 78% 29.75 in 10.0 mi NNW 4.6 mph - N/A   Overcast
4:06 AM 60.8 °F 53.6 °F 77% 29.76 in 10.0 mi NNW 4.6 mph - 0.00 in Rain Light Rain
4:53 AM 57.0 °F 54.0 °F 89% 29.75 in 10.0 mi North 6.9 mph - 0.01 in Rain Light Rain
5:51 AM 55.4 °F 53.6 °F 94% 29.73 in 10.0 mi NNE 5.8 mph - 0.01 in Rain Light Rain
5:53 AM 55.9 °F 54.0 °F 93% 29.73 in 10.0 mi NNE 5.8 mph - 0.01 in Rain Light Rain
6:43 AM 53.6 °F 51.8 °F 94% 29.71 in 10.0 mi NE 8.1 mph - 0.01 in Rain Light Rain
6:53 AM 54.0 °F 52.0 °F 93% 29.73 in 10.0 mi NE 4.6 mph - 0.01 in Rain Light Rain
7:53 AM 52.0 °F 50.0 °F 93% 29.70 in 10.0 mi NNE 9.2 mph - 0.04 in Rain Light Rain
8:04 AM 51.8 °F 50.0 °F 94% 29.72 in 10.0 mi North 12.7 mph - 0.00 in Rain Light Rain
8:12 AM 51.8 °F 48.2 °F 88% 29.72 in 10.0 mi NNE 13.8 mph - 0.00 in Rain Light Rain
8:43 AM 50.0 °F 48.2 °F 94% 29.74 in 4.0 mi North 15.0 mph 20.7 mph 0.08 in Rain Rain
8:53 AM 48.9 °F 48.0 °F 97% 29.73 in 2.0 mi NNE 12.7 mph 23.0 mph 0.16 in Rain Heavy Rain
9:00 AM 48.2 °F 46.4 °F 93% 29.75 in 2.5 mi North 12.7 mph 21.9 mph 0.03 in Rain Rain
9:08 AM 48.2 °F 46.4 °F 93% 29.75 in 3.0 mi North 11.5 mph - 0.06 in Rain Heavy Rain
9:21 AM 48.2 °F 46.4 °F 93% 29.75 in 5.0 mi North 10.4 mph - 0.09 in Rain Rain
10:14 AM 48.2 °F 46.4 °F 93% 29.75 in 5.0 mi North 8.1 mph - 0.05 in Rain Rain
10:53 AM 48.9 °F 46.9 °F 93% 29.75 in 10.0 mi NNE 8.1 mph - 0.09 in Rain Light Rain
11:53 AM 48.9 °F 48.0 °F 97% 29.76 in 10.0 mi North 8.1 mph - 0.01 in Rain Light Rain
12:11 PM 50.0 °F 48.2 °F 94% 29.76 in 10.0 mi NNE 4.6 mph - 0.00 in   Overcast
12:29 PM 50.0 °F 48.2 °F 94% 29.76 in 10.0 mi North 4.6 mph - 0.00 in   Overcast
12:53 PM 50.0 °F 48.0 °F 93% 29.76 in 8.0 mi NNE 4.6 mph - 0.00 in Rain Rain
1:00 PM 50.0 °F 48.2 °F 94% 29.75 in 6.0 mi NNE 4.6 mph - 0.01 in Rain Light Rain
1:53 PM 52.0 °F 50.0 °F 93% 29.76 in 10.0 mi NW 3.5 mph - 0.01 in Rain Light Rain
2:53 PM 55.9 °F 48.0 °F 75% 29.78 in 10.0 mi Variable 4.6 mph - 0.00 in   Overcast
3:53 PM 59.0 °F 44.1 °F 58% 29.78 in 10.0 mi WSW 6.9 mph - N/A   Scattered Clouds
4:53 PM 57.0 °F 43.0 °F 59% 29.78 in 10.0 mi Variable 5.8 mph - N/A   Scattered Clouds
5:53 PM 54.0 °F 42.1 °F 64% 29.80 in 10.0 mi Variable 5.8 mph - N/A   Clear
6:53 PM 54.0 °F 42.1 °F 64% 29.82 in 10.0 mi Variable 3.5 mph - N/A   Mostly Cloudy
7:53 PM 54.0 °F 39.9 °F 59% 29.85 in 10.0 mi Variable 5.8 mph - N/A   Overcast
8:53 PM 51.1 °F 37.0 °F 59% 29.87 in 10.0 mi Variable 3.5 mph - N/A   Clear
9:53 PM 50.0 °F 36.0 °F 59% 29.90 in 10.0 mi Variable 5.8 mph - N/A   Clear
10:53 PM 48.9 °F 37.0 °F 64% 29.91 in 10.0 mi West 8.1 mph - N/A   Clear
11:53 PM 46.9 °F 37.0 °F 68% 29.91 in 10.0 mi Variable 3.5 mph - N/A   Clear